{"data":{"norad_id":65716,"epoch":"2026-09-20T14:36:37.744416Z","epoch_age_seconds":140301,"freshness":"FRESH","line1":"1 65716U 25214E   26263.60877019  .00001074  00000+0  15611-3 0  9994","line2":"2 65716  49.9846 226.0015 0009324 234.5675 125.4393 14.83611948 53676","mean_motion":14.83611948,"eccentricity":0.0009324,"inclination_deg":49.9846,"raan_deg":226.0015,"arg_perigee_deg":234.5675,"mean_anomaly_deg":125.4393,"bstar":0.00015611,"rev_number":5367,"period_min":97.060420815646,"perigee_km":611.42295933027,"apogee_km":624.46925510861,"semimajor_km":6996.0831072194,"source":"CELESTRAK","updated_at":"2026-09-21T09:00:15.522793Z"}}